WORLDVIEW-3 (WV-3)

Last updated on Mon Sep 07 2026 00:02:45 GMT+0000 (Coordinated Universal Time)

1 40115U 14048A 26249.62702711 .00000367 00000+0 49158-4 0 9993 2 40115 97.8504 323.3137 0002670 70.3819 289.7684 14.85130510653995
UTC large
Height (km)
Speed (km/s)
/
Latitude / Longitude
Inclination (degrees)
Orbital Period (minutes)
Azimuth
Elevation
Range (km)
Doppler Factor

Next 0 passes for location: London (51.5072 / 0.1276)

No passes found over London.
WORLDVIEW-3 (WV-3)